Location: Bridgewater Hill Observatory
(43.5992°N, 72.6989°W)
Time: 12:33:48
(UTC-04:00)

Daily predictions for brighter satellites

Satellite Brightness Start Highest point End
(mag) Time Altitude Azimuth Time Altitude Azimuth Time Altitude Azimuth
Cosmos 1570 Rocket 4.0 19:08:36 10° SSW 19:13:49 84° ESE 19:19:05 10° NNE
Cosmos 1606 Rocket 4.1 19:10:21 10° SSE 19:14:20 36° E 19:18:19 10° NNE
EP 1 4.4 19:13:10 10° SSW 19:15:46 49° ESE 19:18:18 10° NE
Cosmos 2228 4.2 19:13:04 10° SE 19:16:23 22° E 19:19:43 10° NE
Cosmos 2208 Rocket 4.1 19:11:02 10° SSW 19:16:29 80° ESE 19:21:56 10° NNE
Cosmos 1763 Rocket 4.4 19:12:30 10° SSE 19:16:33 24° E 19:20:40 10° NE
Meteor 2-5 Rocket 4.4 19:14:36 10° N 19:20:02 37° ENE 19:25:21 10° SE
SPOT 3 Rocket 4.2 19:16:59 10° S 19:22:04 61° WSW 19:27:12 10° NNW
Cosmos 1943 Rocket 2.2 19:21:30 10° NNW 19:27:04 67° ENE 19:32:38 10° SE
Cosmos 2181 Rocket 4.0 19:23:28 10° N 19:29:38 59° E 19:35:40 10° SSE
Cosmos 1825 Rocket 3.5 19:29:07 10° N 19:33:33 78° E 19:37:58 10° SSE
Spot 2 Rocket 4.4 19:33:30 10° ESE 19:37:45 28° ENE 19:42:00 10° N
Cosmos 1184 Rocket 3.9 19:34:42 10° NNW 19:38:00 50° W 19:41:16 10° S
H-2A R/B 2.7 19:34:58 10° SSE 19:38:38 61° ENE 19:42:20 10° N
Cosmos 1898 Rocket 3.5 19:40:25 10° NNW 19:45:38 86° WSW 19:50:49 10° SSE
FengYun 1-2 T 4.2 19:40:39 10° SSE 19:46:16 81° ENE 19:51:52 10° NNW
Cosmos 1766 4.5 19:43:28 10° SE 19:46:30 21° E 19:49:31 10° NE
COSMOS 2406 4.3 19:43:43 10° SSE 19:47:58 22° E 19:52:16 10° NE
USA 81 4.0 19:43:30 10° N 19:48:47 65° E 19:54:01 10° SSE
Cosmos 1814 Rocket 4.0 19:46:30 10° S 19:51:34 60° ESE 19:56:39 10° NNE
Cosmos 2074 Rocket 4.3 19:46:32 10° SSE 19:52:21 45° E 19:58:12 10° NNE
Cosmos 304 Rocket 4.3 19:49:22 10° SSE 19:53:40 34° ESE 19:58:00 10° NE
Cosmos 482 Debris 4.0 19:50:06 10° WNW 19:54:18 66° SW 19:56:04 19° SE
Tiangong 2 3.9 19:53:51 10° WSW 19:55:08 12° SW 19:56:24 10° S
Cosmos 1707 2.7 19:52:21 10° N 19:56:19 84° E 20:00:14 10° S
Cosmos 2150 Rocket 4.0 19:55:34 10° NNW 20:00:55 84° ENE 20:06:19 10° SSE
Cosmos 1709 Rocket 4.4 19:55:23 10° SSW 20:01:42 69° W 20:08:05 10° N
Cosmos 2369 Rocket 3.6 19:56:29 10° NW 20:01:43 39° WSW 20:06:53 10° S
Cosmos 990 Rocket 3.9 19:56:35 10° NNW 20:01:47 85° ENE 20:06:56 10° SSE
SL-08 ROCKET BODY 4.3 19:57:35 10° S 20:03:25 77° E 20:09:22 10° N
Cosmos 1340 Rocket 3.4 19:59:38 10° NNW 20:03:39 61° W 20:07:39 10° S
Cosmos 1758 Rocket 4.1 20:00:07 10° NNW 20:04:35 65° W 20:09:01 10° S
Resurs 1-3 3.8 20:03:09 13° SE 20:06:53 51° ENE 20:11:09 10° N
Cosmos 1356 Rocket 3.5 20:05:14 10° N 20:09:29 59° ENE 20:13:05 14° SSE
Envisat 3.2 20:05:29 14° SE 20:09:34 48° ENE 20:14:27 10° N
ALOS 4.1 20:05:34 10° SSW 20:09:47 33° W 20:14:01 10° NNW
Cosmos 1656 Rocket 3.7 20:04:12 10° NNW 20:09:51 65° ENE 20:14:09 17° SE
Cosmos 389 Rocket 3.7 20:07:00 10° SSW 20:10:22 44° WNW 20:13:45 10° N
Lacrosse 5 3.8 20:06:42 10° WNW 20:10:51 26° WSW 20:14:58 10° S
BREEZE M DEB (TANK) 3.1 20:03:42 10° WNW 20:11:24 88° SSW 20:12:59 29° ESE
Cosmos 1726 Rocket 4.1 20:09:29 10° SSW 20:13:47 60° W 20:18:06 10° N
Nadezhda 3 Rocket 4.5 20:11:37 10° N 20:17:29 39° ENE 20:20:40 24° SE
Resurs 01 Rocket 1.5 20:16:42 13° SSE 20:20:40 77° ENE 20:25:05 10° N
BREEZE-M DEB (TANK) 4.1 20:18:28 10° WNW 20:22:22 53° NNE 20:31:44 17° E
USA 186 1.6 20:25:29 50° NNE 20:25:29 50° NNE 20:27:28 10° N
Cosmos 2184 Rocket 3.9 20:19:06 10° S 20:25:22 78° E 20:31:45 10° N
Cosmos 1805 4.2 20:27:11 29° ENE 20:27:11 29° ENE 20:29:44 10° NNE
In-Cosmos 22 4.2 20:21:00 10° N 20:26:39 67° ENE 20:31:00 18° SSE
Cosmos 1674 4.4 20:26:49 10° NNE 20:28:28 18° NE 20:28:28 18° NE
GP-B 3.2 20:25:37 10° N 20:29:59 54° E 20:31:49 31° SSE
CZ-2D R/B 3.6 20:26:31 11° S 20:30:12 63° W 20:34:00 10° NNW
FALCON 9 R/B 3.0 20:28:22 10° SW 20:31:41 32° SSE 20:33:19 28° SE
ATLAS 2AS CENTAUR R/B 4.2 20:27:40 10° NNW 20:34:26 28° NNE 20:38:19 19° ENE
Cosmos 1610 Rocket 4.5 20:28:35 10° S 20:34:50 65° E 20:41:10 10° NNE
Cosmos 841 Rocket 3.4 20:29:49 10° SSW 20:34:58 87° WNW 20:40:09 10° NNE
Meteor 1-24 Rocket 3.9 20:32:11 10° NNW 20:38:13 83° W 20:44:00 10° S
YAOGAN 6 3.4 20:44:48 37° NNE 20:44:48 37° NNE 20:47:20 10° N
NOSS 3-1 (A) 4.0 20:36:41 10° NW 20:44:17 83° NE 20:48:54 30° SE
BREEZE-M DEB (TANK) 3.7 20:46:56 10° NW 20:47:45 18° NW 20:47:45 18° NW
Cosmos 1812 Rocket 3.4 20:48:56 51° SSE 20:49:56 71° E 20:54:25 10° NNE
Cosmos 1544 3.1 20:49:31 54° SSW 20:50:15 77° W 20:53:53 10° N
Cosmos 2084 3.5 20:48:54 10° SW 20:52:56 67° NW 20:54:36 32° NNE
NOSS 3-1 (C) 4.2 20:47:36 10° NW 20:55:10 71° WSW 21:00:23 25° SSE
MOS 1-B Rocket 4.3 20:55:10 12° S 21:01:13 64° WSW 21:06:56 10° NNW
ATLAS CENTAUR R/B 3.8 20:51:10 10° NW 21:03:17 50° WSW 21:05:46 29° S
GEOS 3 Rocket 3.6 20:59:43 10° NE 21:05:09 90° NW 21:10:32 10° SW
Cosmos 540 Rocket 3.3 21:02:08 10° SSW 21:07:14 89° WNW 21:12:23 10° NNE
Meteor 2-19 Rocket 4.5 21:06:04 10° SSW 21:12:07 77° W 21:18:12 10° N
Cosmos 962 Rocket 4.4 21:11:22 44° SSE 21:13:29 74° E 21:19:51 10° NNE
Cosmos 1980 Rocket 4.1 21:11:49 10° N 21:14:44 15° NE 21:14:44 15° NE
Cosmos 1697 Rocket 4.2 21:11:26 10° N 21:15:21 23° NE 21:15:21 23° NE
Cosmos 1939 Rocket 3.8 21:19:28 44° W 21:19:28 44° W 21:23:05 10° NNW
BREEZE-M DEB (TANK) 3.0 21:13:05 10° WSW 21:21:11 71° SSW 21:21:11 71° SSW
Meteor 1-21 Rocket 4.1 21:19:00 10° N 21:24:49 89° ENE 21:25:09 81° SSE
Cosmos 2154 Rocket 4.3 21:23:52 10° SSW 21:30:00 63° W 21:36:14 10° N
COSMOS 2406 3.8 21:26:12 10° SW 21:31:48 57° WNW 21:37:29 10° NNE
Cosmos 2341 Rocket 4.0 21:34:12 52° SSW 21:35:49 79° W 21:42:05 10° N
Cosmos 1125 Rocket 4.3 21:33:12 10° NNW 21:38:14 45° WSW 21:38:48 44° WSW
H-2A R/B 3.4 21:42:16 28° NNE 21:42:16 28° NNE 21:44:51 10° N
NOAA 11 4.3 21:42:52 70° WNW 21:42:52 70° WNW 21:47:56 10° NNW
Meteor 2-15 4.4 21:37:37 10° N 21:43:05 72° N 21:43:05 72° N
ERS-1 Rocket 3.8 21:51:22 47° NNW 21:51:22 47° NNW 21:54:59 10° NNW
Terra 4.2 21:53:43 14° NNE 21:53:43 14° NNE 21:54:33 10° N
Cosmos 2369 4.3 21:45:53 10° NNW 21:50:08 50° N 21:50:08 50° N
ARGOS 3.9 21:57:13 49° NNW 21:57:13 49° NNW 22:01:08 10° NNW
ATLAS 2AS CENTAUR R/B 3.1 22:18:41 10° NW 22:25:45 68° N 22:25:45 68° N
Cosmos 2322 Rocket 4.4 22:41:51 10° N 22:43:36 17° N 22:43:36 17° N
USA 267 4.2 22:55:43 42° NNW 22:55:43 42° NNW 23:00:16 10° NW
Cosmos 1980 Rocket 4.2 22:54:21 10° NNW 22:56:29 24° NNW 22:56:29 24° NNW
